TOM1HM GCRR-EGNX

Flight info

Callsign TOM1HM
Flight time N/A
Altitude 34000
Route VASTO DCT NIDEB/N0451F360 DCT TIGGI DCT ULVOT DCT NEVUD DCT EMPAD DCT AIREZ DCT VIS DCT BALNO DCT LOTEE DCT INCEF DCT DEGEX DCT OZNOH DCT ARTIV DCT DIKRO UM184 HEMEL
Aircraft A320/M-SDE3FGHIRWY/LB1

Departure

Time 2026-05-04 20:16
Airport César Manrique-Lanzarote Airport (GCRR)

Arrival

Time N/A
Airport East Midlands Airport (EGNX)
Time Latitude Longitude Altitude Speed Heading
2026-05-04 20:02 28.95256 -13.60561 30 ft 0 kts 297°
2026-05-04 20:07 28.95250 -13.60549 30 ft 1 kts 297°
2026-05-04 20:08 28.95246 -13.60539 30 ft 2 kts 292°
2026-05-04 20:08 28.95243 -13.60523 30 ft 2 kts 274°
2026-05-04 20:08 28.95243 -13.60507 30 ft 2 kts 258°
2026-05-04 20:08 28.95248 -13.60491 30 ft 2 kts 242°
2026-05-04 20:09 28.95256 -13.60477 30 ft 2 kts 226°
2026-05-04 20:09 28.95267 -13.60466 30 ft 1 kts 210°
2026-05-04 20:09 28.95273 -13.60463 30 ft 1 kts 205°
2026-05-04 20:09 28.95275 -13.60462 30 ft 0 kts 206°
2026-05-04 20:11 28.95272 -13.60463 30 ft 1 kts 206°
2026-05-04 20:12 28.95210 -13.60499 30 ft 17 kts 210°
2026-05-04 20:12 28.95130 -13.60486 30 ft 12 kts 122°
2026-05-04 20:12 28.95048 -13.60446 30 ft 17 kts 197°
2026-05-04 20:12 28.94913 -13.60520 30 ft 25 kts 208°
2026-05-04 20:13 28.94868 -13.60546 30 ft 26 kts 207°
2026-05-04 20:13 28.94710 -13.60632 30 ft 31 kts 205°
2026-05-04 20:13 28.94506 -13.60757 30 ft 33 kts 207°
2026-05-04 20:14 28.94298 -13.60875 30 ft 33 kts 207°
2026-05-04 20:14 28.94089 -13.61000 29 ft 33 kts 207°
2026-05-04 20:14 28.93877 -13.61117 30 ft 32 kts 207°
2026-05-04 20:14 28.93692 -13.61219 29 ft 20 kts 185°
2026-05-04 20:15 28.93622 -13.61115 29 ft 17 kts 115°
2026-05-04 20:15 28.93647 -13.61047 29 ft 7 kts 28°
2026-05-04 20:15 28.93695 -13.61018 29 ft 8 kts 27°
2026-05-04 20:15 28.93751 -13.60986 29 ft 10 kts 25°
2026-05-04 20:16 28.94004 -13.60840 29 ft 73 kts 28°
2026-05-04 20:16 28.94641 -13.60469 30 ft 131 kts 26°
2026-05-04 20:16 28.95568 -13.59915 237 ft 159 kts 32°
2026-05-04 20:16 28.96528 -13.59269 809 ft 161 kts 33°
2026-05-04 20:17 28.97420 -13.58501 1388 ft 166 kts 42°
2026-05-04 20:17 28.98324 -13.57647 1953 ft 172 kts 38°
2026-05-04 20:17 28.99315 -13.56787 2289 ft 188 kts 37°
2026-05-04 20:17 29.00400 -13.55859 2627 ft 205 kts 37°
2026-05-04 20:18 29.01529 -13.54754 2980 ft 223 kts 43°
2026-05-04 20:18 29.02787 -13.53595 3320 ft 240 kts 23°
2026-05-04 20:18 29.04451 -13.53225 3759 ft 253 kts
2026-05-04 20:18 29.06238 -13.53116 4453 ft 258 kts
2026-05-04 20:19 29.08015 -13.52968 5168 ft 261 kts
2026-05-04 20:19 29.09822 -13.52764 5876 ft 265 kts
2026-05-04 20:19 29.11675 -13.52513 6578 ft 269 kts
2026-05-04 20:19 29.13548 -13.52234 7282 ft 273 kts
2026-05-04 20:20 29.15444 -13.51936 7966 ft 278 kts
2026-05-04 20:20 29.17371 -13.51626 8652 ft 283 kts
2026-05-04 20:20 29.19322 -13.51305 9329 ft 287 kts
2026-05-04 20:20 29.21303 -13.50975 9986 ft 292 kts
2026-05-04 20:21 29.23350 -13.50635 10556 ft 300 kts
2026-05-04 20:21 29.25451 -13.50291 10879 ft 317 kts
2026-05-04 20:21 29.30021 -13.50202 11688 ft 335 kts 350°
2026-05-04 20:22 29.32353 -13.50398 12299 ft 339 kts 350°
2026-05-04 20:22 29.34732 -13.50587 12917 ft 343 kts 350°
2026-05-04 20:22 29.37131 -13.50758 13499 ft 348 kts 350°
2026-05-04 20:22 29.39577 -13.50921 14073 ft 352 kts 350°
2026-05-04 20:23 29.42005 -13.51072 14638 ft 356 kts 350°
2026-05-04 20:23 29.44522 -13.51221 15195 ft 360 kts 350°
2026-05-04 20:23 29.47030 -13.51369 15744 ft 363 kts 350°
2026-05-04 20:23 29.49536 -13.51515 16257 ft 367 kts 350°
2026-05-04 20:24 29.52116 -13.51664 16783 ft 370 kts 351°
2026-05-04 20:24 29.54684 -13.51809 17286 ft 374 kts 350°
2026-05-04 20:24 29.57305 -13.51959 17755 ft 378 kts 350°
2026-05-04 20:24 29.59957 -13.52108 18243 ft 381 kts 350°
2026-05-04 20:25 29.62609 -13.52259 18709 ft 385 kts 350°
2026-05-04 20:25 29.65281 -13.52411 19189 ft 387 kts 350°
2026-05-04 20:25 29.68002 -13.52564 19669 ft 390 kts 350°
2026-05-04 20:25 29.70720 -13.52717 20140 ft 392 kts 350°
2026-05-04 20:26 29.73454 -13.52872 20606 ft 395 kts 350°
2026-05-04 20:26 29.76195 -13.53028 21049 ft 397 kts 350°
2026-05-04 20:26 29.78955 -13.53186 21487 ft 400 kts 350°
2026-05-04 20:26 29.81742 -13.53344 21930 ft 402 kts 350°
2026-05-04 20:27 29.84544 -13.53503 22375 ft 404 kts 350°
2026-05-04 20:27 29.87361 -13.53663 22797 ft 406 kts 350°
2026-05-04 20:27 29.90215 -13.53826 23178 ft 410 kts 350°
2026-05-04 20:27 29.93073 -13.53988 23569 ft 412 kts 350°
2026-05-04 20:28 29.95937 -13.54151 23972 ft 414 kts 350°
2026-05-04 20:28 29.98804 -13.54316 24326 ft 417 kts 349°
2026-05-04 20:28 30.01726 -13.54483 24679 ft 419 kts 349°
2026-05-04 20:28 30.04642 -13.54649 25053 ft 421 kts 349°
2026-05-04 20:29 30.07584 -13.54818 25405 ft 424 kts 349°
2026-05-04 20:29 30.10552 -13.54987 25766 ft 426 kts 349°
2026-05-04 20:29 30.13482 -13.55156 26101 ft 428 kts 349°
2026-05-04 20:29 30.16466 -13.55327 26426 ft 430 kts 349°
2026-05-04 20:30 30.19481 -13.55367 26707 ft 440 kts 359°
2026-05-04 20:30 30.22508 -13.54412 26959 ft 458 kts 18°
2026-05-04 20:30 30.25365 -13.52803 27314 ft 462 kts 22°
2026-05-04 20:30 30.28208 -13.51056 27598 ft 464 kts 22°
2026-05-04 20:31 30.31085 -13.49311 27856 ft 467 kts 22°
2026-05-04 20:31 30.33957 -13.47626 28129 ft 468 kts 21°
2026-05-04 20:31 30.36922 -13.45934 28402 ft 470 kts 20°
2026-05-04 20:31 30.39858 -13.44288 28651 ft 472 kts 20°
2026-05-04 20:32 30.42816 -13.42646 28892 ft 475 kts 20°
2026-05-04 20:32 30.45793 -13.41006 29142 ft 477 kts 20°
2026-05-04 20:32 30.48829 -13.39336 29368 ft 480 kts 20°
2026-05-04 20:32 30.51855 -13.37671 29613 ft 481 kts 19°
2026-05-04 20:33 30.54863 -13.36016 29862 ft 483 kts 19°
2026-05-04 20:33 30.57904 -13.34343 30110 ft 485 kts 20°
2026-05-04 20:33 30.60949 -13.32666 30341 ft 487 kts 20°
2026-05-04 20:33 30.64026 -13.30970 30551 ft 488 kts 20°
2026-05-04 20:34 30.67121 -13.29263 30758 ft 490 kts 20°
2026-05-04 20:34 30.70203 -13.27561 30980 ft 492 kts 20°
2026-05-04 20:34 30.73261 -13.25873 31195 ft 493 kts 20°
2026-05-04 20:34 30.76377 -13.24151 31395 ft 494 kts 20°
2026-05-04 20:35 30.79487 -13.22430 31611 ft 495 kts 20°
2026-05-04 20:35 30.82592 -13.20711 31870 ft 495 kts 20°
2026-05-04 20:35 30.85668 -13.19007 32150 ft 494 kts 20°
2026-05-04 20:35 30.88769 -13.17288 32417 ft 493 kts 20°
2026-05-04 20:36 30.91871 -13.15565 32711 ft 491 kts 20°
2026-05-04 20:36 30.94941 -13.13860 32928 ft 492 kts 20°
2026-05-04 20:36 30.98030 -13.12145 33164 ft 491 kts 20°
2026-05-04 20:36 31.01101 -13.10439 33440 ft 490 kts 20°
2026-05-04 20:37 31.04192 -13.08719 33712 ft 488 kts 20°
2026-05-04 20:37 31.07216 -13.07035 33956 ft 487 kts 20°
2026-05-04 20:37 31.10299 -13.05317 34178 ft 487 kts 20°
2026-05-04 20:37 31.13355 -13.03615 34325 ft 489 kts 20°
2026-05-04 20:38 31.16412 -13.01910 34497 ft 489 kts 20°
2026-05-04 20:38 31.19509 -13.00182 34645 ft 490 kts 20°
2026-05-04 20:38 31.22559 -12.98478 34772 ft 491 kts 19°
2026-05-04 20:38 31.25676 -12.96736 34931 ft 492 kts 20°
2026-05-04 20:39 31.28772 -12.95005 35084 ft 493 kts 20°
2026-05-04 20:39 31.31854 -12.93279 35247 ft 493 kts 20°
2026-05-04 20:39 31.34928 -12.91555 35417 ft 492 kts 20°
2026-05-04 20:39 31.38019 -12.89822 35567 ft 492 kts 19°
2026-05-04 20:40 31.41118 -12.88083 35684 ft 493 kts 20°
2026-05-04 20:40 31.44214 -12.86345 35814 ft 493 kts 20°
2026-05-04 20:40 31.47276 -12.84626 35931 ft 494 kts 20°
2026-05-04 20:40 31.50381 -12.82879 36059 ft 493 kts 19°
2026-05-04 20:41 31.56557 -12.79401 36086 ft 494 kts 20°
2026-05-04 20:41 31.62796 -12.75886 36095 ft 495 kts 20°
2026-05-04 20:42 31.68974 -12.72399 36092 ft 494 kts 20°
2026-05-04 20:42 31.75142 -12.68910 36096 ft 494 kts 20°
2026-05-04 20:43 31.81314 -12.65413 36098 ft 493 kts 20°
2026-05-04 20:43 31.87506 -12.61900 36094 ft 493 kts 20°
2026-05-04 20:44 31.93680 -12.58393 36095 ft 493 kts 20°
2026-05-04 20:44 31.99819 -12.54899 36094 ft 491 kts 20°
2026-05-04 20:45 32.05992 -12.51387 36094 ft 492 kts 20°
2026-05-04 20:45 32.12180 -12.47860 36094 ft 492 kts 20°
2026-05-04 20:46 32.18292 -12.44367 36099 ft 490 kts 20°
2026-05-04 20:46 32.24445 -12.40844 36095 ft 489 kts 20°
2026-05-04 20:47 32.30531 -12.37357 36096 ft 488 kts 20°
2026-05-04 20:47 32.36623 -12.33859 36092 ft 488 kts 21°
2026-05-04 20:48 32.42770 -12.30326 36099 ft 488 kts 21°
2026-05-04 20:48 32.48842 -12.26827 36096 ft 487 kts 21°
2026-05-04 20:49 32.54923 -12.23319 36094 ft 488 kts 21°
2026-05-04 20:49 32.61038 -12.19788 36097 ft 487 kts 21°
2026-05-04 20:50 32.67121 -12.16270 36105 ft 487 kts 21°
2026-05-04 20:50 32.73193 -12.12749 36098 ft 486 kts 21°
2026-05-04 20:51 32.79248 -12.09233 36102 ft 485 kts 21°
2026-05-04 20:51 32.85287 -12.05720 36103 ft 483 kts 21°
2026-05-04 20:52 32.91330 -12.02201 36099 ft 483 kts 21°
2026-05-04 20:52 32.97466 -11.99042 36106 ft 477 kts 14°
2026-05-04 20:53 33.03760 -11.96697 36109 ft 475 kts 10°
2026-05-04 20:53 33.10126 -11.94558 36103 ft 475 kts 10°
2026-05-04 20:54 33.16459 -11.92421 36113 ft 475 kts 10°
2026-05-04 20:54 33.22811 -11.90260 36108 ft 475 kts 10°
2026-05-04 20:55 33.29189 -11.88085 36116 ft 475 kts 10°
2026-05-04 20:55 33.35505 -11.85926 36112 ft 473 kts 10°
2026-05-04 20:56 33.41808 -11.83768 36115 ft 472 kts 10°
2026-05-04 20:56 33.48169 -11.81588 36122 ft 473 kts 11°
2026-05-04 20:57 33.54474 -11.79422 36115 ft 473 kts 10°
2026-05-04 20:57 33.60809 -11.77242 36119 ft 474 kts 10°
2026-05-04 20:58 33.67128 -11.75063 36116 ft 474 kts 11°
2026-05-04 20:58 33.73490 -11.72868 36122 ft 474 kts 11°
2026-05-04 20:59 33.79845 -11.70669 36125 ft 473 kts 11°
2026-05-04 20:59 33.86157 -11.68480 36120 ft 472 kts 11°
2026-05-04 21:00 33.92442 -11.66299 36128 ft 473 kts 10°
2026-05-04 21:00 33.98752 -11.64109 36126 ft 471 kts 11°
2026-05-04 21:01 34.05078 -11.61909 36123 ft 473 kts 11°
2026-05-04 21:01 34.11382 -11.59714 36121 ft 472 kts 11°
2026-05-04 21:02 34.17662 -11.57522 36123 ft 472 kts 11°
2026-05-04 21:02 34.23968 -11.55316 36124 ft 472 kts 11°
2026-05-04 21:03 34.30284 -11.53107 36130 ft 472 kts 11°
2026-05-04 21:03 34.33431 -11.52005 35852 ft 472 kts 11°
2026-05-04 21:03 34.36572 -11.50902 36014 ft 471 kts 10°
2026-05-04 21:04 34.42885 -11.48686 36122 ft 474 kts 10°
2026-05-04 21:04 34.49231 -11.46456 36139 ft 475 kts 10°
2026-05-04 21:05 34.55570 -11.44224 36144 ft 474 kts 10°
2026-05-04 21:05 34.61900 -11.41991 36145 ft 475 kts 10°
2026-05-04 21:06 34.68241 -11.39750 36145 ft 475 kts 10°
2026-05-04 21:06 34.74543 -11.37520 36145 ft 474 kts 10°
2026-05-04 21:07 34.80847 -11.35287 36142 ft 473 kts 10°
2026-05-04 21:07 34.87172 -11.33043 36129 ft 473 kts 11°
2026-05-04 21:08 34.93481 -11.30800 36128 ft 473 kts 11°
2026-05-04 21:08 34.99823 -11.28537 36131 ft 473 kts 11°
2026-05-04 21:09 35.06127 -11.26289 36133 ft 473 kts 11°
2026-05-04 21:09 35.12402 -11.24049 36130 ft 472 kts 11°
2026-05-04 21:10 35.18718 -11.21788 36131 ft 473 kts 10°
2026-05-04 21:10 35.25032 -11.19526 36132 ft 472 kts 11°
2026-05-04 21:11 35.31347 -11.17258 36131 ft 473 kts 10°
2026-05-04 21:11 35.37642 -11.14995 36137 ft 473 kts 11°
2026-05-04 21:12 35.43941 -11.12725 36136 ft 472 kts 10°
2026-05-04 21:12 35.50217 -11.10459 36134 ft 472 kts 10°
2026-05-04 21:13 35.56509 -11.08185 36136 ft 470 kts 10°
2026-05-04 21:13 35.62767 -11.05920 36136 ft 470 kts 10°
2026-05-04 21:14 35.69067 -11.03637 36140 ft 470 kts 10°
2026-05-04 21:14 35.75304 -11.01372 36142 ft 471 kts 10°
2026-05-04 21:15 35.81634 -10.99067 36144 ft 471 kts 10°
2026-05-04 21:15 35.87876 -10.96789 36141 ft 471 kts 10°
2026-05-04 21:16 35.94165 -10.94476 36138 ft 471 kts 11°
2026-05-04 21:16 36.00292 -10.91599 36140 ft 475 kts 17°
2026-05-04 21:17 36.06341 -10.88235 36142 ft 476 kts 18°
2026-05-04 21:17 36.12356 -10.84848 36142 ft 476 kts 18°
2026-05-04 21:18 36.18368 -10.81472 36142 ft 477 kts 18°
2026-05-04 21:18 36.24388 -10.78091 36138 ft 477 kts 18°
2026-05-04 21:19 36.30444 -10.74688 36135 ft 478 kts 18°
2026-05-04 21:19 36.36515 -10.71268 36137 ft 478 kts 18°
2026-05-04 21:20 36.42553 -10.67862 36138 ft 477 kts 18°
2026-05-04 21:20 36.48598 -10.64448 36135 ft 477 kts 18°
2026-05-04 21:21 36.54652 -10.61023 36133 ft 477 kts 17°
2026-05-04 21:21 36.60688 -10.57604 36133 ft 478 kts 18°
2026-05-04 21:22 36.66747 -10.54162 36133 ft 479 kts 17°
2026-05-04 21:22 36.72799 -10.50718 36133 ft 479 kts 17°
2026-05-04 21:23 36.78831 -10.47280 36133 ft 478 kts 17°